Regional Weather Roundup
Issued by NWS

Home | Current Version | Previous Version | Text Only | Print | Product List | Glossary Off
Versions: 1 2 3 4 5 6 7 8 9 10 11 12 13 14 15 16 17 18 19 20 21 22 23 24 25 26 27

000
ASUS43 KDMX 161007
RWRIA

WEATHER ROUNDUP FOR IOWA
NATIONAL WEATHER SERVICE DES MOINES IA
500 AM CDT WED APR 16 2014

NOTE: "FAIR" INDICATES FEW OR NO CLOUDS BELOW 12,000 FEET WITH NO
SIGNIFICANT WEATHER AND/OR OBSTRUCTIONS TO VISIBILITY.

* - THESE STATIONS ARE NOT NWS STATIONS...THUS NOT UNDER NWS
QUALITY CONTROL.  THEY ALSO DO NOT REPORT WEATHER SUCH
AS PRECIPITATION OR FOG.

IAZ001>003-012>014-020>022-031>034-043>046-161100-
   NORTHWEST IOWA

CITY           SKY/WX    TMP DP  RH WIND       PRES   REMARKS
CARROLL *      MOCLDY    43  30  61 S20G25    29.79F
CHEROKEE *     CLOUDY    43  30  61 S14       29.72F
DENISON *      PTCLDY    43  30  61 S21G31    29.74S
LE MARS *      CLOUDY    46  28  49 S20G29    29.67F
ORANGE CITY *  CLOUDY    43  28  56 SE10      29.68S
SHELDON *      CLOUDY    39  30  70 SE21G26   29.68F WCI  29
SIOUX CITY     CLOUDY    48  28  46 S14G20    29.69R
SPENCER        CLOUDY    38  29  70 SE24      29.75F WCI  27
STORM LAKE *   CLOUDY    41  32  70 S20G28    29.75F
$$

IAZ055>058-069>071-079>083-090>094-161100-
   SOUTHWEST IOWA

CITY           SKY/WX    TMP DP  RH WIND       PRES   REMARKS
ATLANTIC *     CLOUDY    45  28  53 S20G28    29.81F
AUDUBON *      CLEAR     43  27  52 S16G25    29.81F
CLARINDA *     CLEAR     45  28  53 S16       29.87F
COUNCIL BLFS * CLEAR     43  30  61 S20G25    29.76F
CRESTON *      CLEAR     41  28  60 S18G28    29.87F
HARLAN  *      PTCLDY    43  30  61 S23G33    29.81F
LAMONI         PTCLDY    40  26  57 S13G21    29.93F WCI  32
RED OAK *      PTCLDY    45  30  57 S21G29    29.82F
SHENANDOAH *   CLEAR     45  30  57 S21G30    29.83F
$$

IAZ047>049-059>061-072>074-084-161100-
   CENTRAL IOWA

CITY           SKY/WX    TMP DP  RH WIND       PRES   REMARKS
AMES           CLOUDY    37  27  67 SE16      29.90F WCI  28
ANKENY *       PTCLDY    39  27  60 SE14      29.91F WCI  31
CHARITON *     CLOUDY    39  27  60 S16G23    29.94S WCI  30
DES MOINES     CLOUDY    42  26  53 S16       29.92F
GRINNELL*      MOCLDY    36  27  69 SE17      29.98S WCI  25
KNOXVILLE *    CLOUDY    41  25  52 S15       29.95S
MARSHALLTOWN   CLOUDY    36  26  67 SE18      29.96F WCI  26
NEWTON *       CLOUDY    36  27  69 SE15G21   29.96F WCI  26
PELLA *        MOCLDY    39  27  60 SE9       29.97F WCI  33
PERRY *          N/A     41  30  65 SE13      29.86F
$$

IAZ004>006-015-016-023>025-035-036-161100-
   NORTH CENTRAL IOWA

CITY           SKY/WX    TMP DP  RH WIND       PRES   REMARKS
ALGONA *       CLOUDY    37  27  65 SE22G37   29.81F WCI  27
CLARION *      MIX PCPN  37  27  65 SE23G38   29.86F WCI  26
ESTHERVILLE    CLOUDY    34  27  75 SE22      29.78F WCI  22
FORT DODGE *   CLOUDY    39  27  60 SE12G17   29.85F WCI  32
MASON CITY     CLOUDY    33  22  63 SE18G29   29.92F WCI  22
FOREST CITY *  CLOUDY    34  25  69 SE21G28   29.87F WCI  22
IOWA FALLS *   CLOUDY    37  27  65 SE20      29.92F WCI  27
$$

IAZ007>011-017>019-026>030-037>042-050>054-066-161100-
   NORTHEAST IOWA

CITY           SKY/WX    TMP DP  RH WIND       PRES   REMARKS
CEDAR RAPIDS   CLOUDY    35  22  58 SE13      30.04F WCI  26
CHARLES CITY * CLOUDY    34  21  60 SE22      29.98F WCI  22
CLINTON *      CLEAR     32  19  59 SE15      30.17F WCI  22
DECORAH *      CLOUDY    32  19  59 SE13G21   30.04F WCI  22
DUBUQUE        PTCLDY    30  19  63 SE16      30.11S WCI  19
MONTICELLO *   CLOUDY    34  21  60 SE13G21   30.10R WCI  25
OELWEIN *      CLOUDY   N/A N/A N/A SE23      30.03F
WATERLOO       CLOUDY    35  21  56 SE16      30.00F WCI  25
$$

IAZ064-065-067-068-078-161100-
   EAST CENTRAL IOWA

CITY           SKY/WX    TMP DP  RH WIND       PRES   REMARKS
DAVENPORT      CLEAR     33  21  61 SE14      30.14S WCI  23
IOWA CITY      MOCLDY    33  24  69 SE9       30.09F WCI  25
MT. PLEASANT * CLEAR     36  23  60 SE18      30.07F WCI  25
MUSCATINE *    CLOUDY    36  25  64 SE12      30.10F WCI  27
QUAD CITIES    CLEAR     32  22  66 SE12      30.14F WCI  23
$$

IAZ062-063-075>077-085>089-095>099-161100-
   SOUTHEAST IOWA

CITY           SKY/WX    TMP DP  RH WIND       PRES   REMARKS
BURLINGTON     CLEAR     37  23  56 S15G24    30.10F WCI  28
FAIRFIELD *    CLOUDY    37  23  56 SE14G20   30.04S WCI  29
FORT MADISON * CLEAR     36  25  64 SE15G23   30.09F WCI  26
KEOKUK *       CLOUDY    37  23  56 SE12G18   30.09S WCI  30
OSKALOOSA *      N/A     36  27  69 S17G24    30.00F WCI  25
CENTERVILLE *  CLEAR     39  25  56 SE15      30.00F WCI  31
OTTUMWA        PTCLDY    37  24  59 S17       30.00F WCI  27
WASHINGTON *   CLOUDY    36  27  69 SE13      30.06S WCI  27
$$

ABBREVIATIONS USED IN REMARKS
   TC - TEMPERATURES IN CELSIUS
  WCI - WIND CHILL INDEX
   HX - HEAT INDEX
  VSB - VISIBILITY
$$




USA.gov is the U.S. government's official web portal to all federal, state and local government web resources and services.